Starlink 11177

operational
NORAD ID: 60118 Int'l Des: 2024-118 Owner: SPXS Country: US Constellation: starlink
LEOCIRCULAR

Starlink 11177について

説明を読み込み中...

リアルタイム位置

3D地球を読み込み中...

次回通過

高度履歴

Altitude vs Time

uPlot chart will show altitude changes over time

軌道要素

1 60118U 24118F 25258.54018517 .00000977 00000-0 12916-4 0 9991
2 60118 53.1595 4.7204 0001140 84.6466 275.4682 15.69721839 70487
Epoch: Sep 15, 2025 • Age: 29 hours

現在のステータス

高度 378.2 km
速度 7.68 km/s
衛星直下点 -51.28°S, 29.48°E
打ち上げ日 Jun 24, 2024
運用期間 1.2 years
タイプ internet

技術仕様

分類 Payload
質量 960.00 kg
乾燥質量 910.00 kg
総質量 960.00 kg
長さ 0.30 m
直径 4.10 m
スパン 29.00 m
形状 Box + pan
製造者 SPXS
バスタイプ Starlink V2MD
フェーズステータス In Orbit
所有者/国 SPXS/US

大規模コンステレーション

Loading constellations...